Regional Weather Roundup
Issued by NWS

Home | Current Version | Previous Version | Graphics & Text | Print | Product List | Glossary On
Versions: 1 2 3 4 5 6 7 8 9 10 11 12 13 14 15 16 17 18 19 20 21 22 23 24 25 26 27 28 29 30 31 32 33 34 35 36 37 38 39 40 41 42 43 44 45 46 47 48 49 50
000
ASUS43 KFSD 211502
RWRSD

WEATHER ROUNDUP FOR SOUTH DAKOTA
NATIONAL WEATHER SERVICE SIOUX FALLS SD
1000 AM CDT TUE OCT 21 2014

NOTE: "FAIR" INDICATES FEW OR NO CLOUDS BELOW 12,000 FEET WITH NO
SIGNIFICANT WEATHER AND/OR OBSTRUCTIONS TO VISIBILITY.


SDZ001>005-009-010-012>017-211600-
NORTHWEST AND NORTH CENTRAL SOUTH DAKOTA

CITY           SKY/WX    TMP DP  RH WIND       PRES   REMARKS
FAITH            N/A     56  43  61 S18       29.79F
MOBRIDGE       SUNNY     59  43  55 S13       29.82R
$$

SDZ012>016-024>037-041>051-057-063-072>074-211600-
SOUTHWEST AND SOUTH CENTRAL SOUTH DAKOTA

CITY           SKY/WX    TMP DP  RH WIND       PRES   REMARKS
RAPID CTY ARPT SUNNY     56  42  59 E5        29.84S
PIERRE         SUNNY     56  42  59 SE13      29.87R
CUSTER         SUNNY     60  36  40 SW7       29.97S
ELLSWORTH AFB  SUNNY     59  41  52 S7        29.83S
PHILIP         SUNNY     64  47  53 S8        29.84S
PINE RIDGE     SUNNY     59  45  59 S13       29.90S
SPEARFISH      FAIR      68  39  34 SW8G20    29.84F
WINNER         FAIR      65  42  43 S22G33    29.92S
$$

SDZ004>011-016>023-039-040-211600-
NORTHEAST SOUTH DAKOTA

CITY           SKY/WX    TMP DP  RH WIND       PRES   REMARKS
ABERDEEN       SUNNY     59  39  47 S16       29.93F
WATERTOWN      SUNNY     52  39  61 SE15G21   30.01F
SISSETON         N/A     44  39  82 S13       30.02F
$$

SDZ017-020-022-023-036>040-048>070-211600-
SOUTHEAST SOUTH DAKOTA

CITY           SKY/WX    TMP DP  RH WIND       PRES   REMARKS
SIOUX FALLS    SUNNY     54  41  61 SE8       30.07F
HURON          SUNNY     56  38  50 S14G22    29.97S
CHAMBERLAIN    SUNNY     56  43  61 SE6       29.94S
MITCHELL       SUNNY     55  40  56 SE16      30.00F
YANKTON        SUNNY     50  43  76 E6        30.06S
$$

ABBREVIATIONS USED IN REMARKS
   TC - TEMPERATURE IN CELSIUS
  WCI - WIND CHILL INDEX
   HX - HEAT INDEX
  VSB - VISIBILITY



USA.gov is the U.S. government's official web portal to all federal, state and local government web resources and services.